[Iaude] MPEC C23: 2024 BJ5 [a=1.96,e=0.49,i=16.8,H=22.6]

mpec at marsden.cfa.harvard.edu mpec at marsden.cfa.harvard.edu
Fri Feb 2 03:37:53 EST 2024


M.P.E.C. 2024-C23                              Issued 2024 February 2, 08:36 UT

     The Minor Planet Electronic Circulars contain information on unusual
         minor planets, routine data on comets and natural satellites,
         and occasional editorial announcements.  They are published
    on behalf of Division F of the International Astronomical Union by the
          Minor Planet Center, Smithsonian Astrophysical Observatory,
                          Cambridge, MA 02138, U.S.A.
			  
             Prepared using the Tamkin Foundation Computer Network

                              MPC at CFA.HARVARD.EDU
            URL https://www.minorplanetcenter.net/    ISSN 1523-6714

                                    2024 BJ5                                    


Observations:
     K24B05J  C2024 01 30.65902014 22 55.939+52 06 28.66         20.27GVEC023F52
     K24B05J  C2024 01 30.66180014 22 56.585+52 06 13.45         21.60GVEC023F52
     K24B05J*1C2024 01 31.44441914 26 17.012+50 51 18.97         20.41GVEC023G96
     K24B05J 1C2024 01 31.44960714 26 18.175+50 50 49.09         20.49GVEC023G96
     K24B05J 1C2024 01 31.45480414 26 19.370+50 50 19.28         20.69GVEC023G96
     K24B05J 1C2024 01 31.45999714 26 20.548+50 49 49.37         20.35GVEC023G96
     K24B05J KC2024 01 31.50165214 26 29.677+50 45 47.84         20.77GVEC023I52
     K24B05J KC2024 01 31.50320714 26 30.019+50 45 38.59         20.59GVEC023I52
     K24B05J KC2024 01 31.50475914 26 30.350+50 45 29.74         21.00GVEC023I52
     K24B05J KC2024 01 31.50632414 26 30.728+50 45 20.41         20.53GVEC023I52
     K24B05J KC2024 02 01.34136714 29 59.25 +49 20 10.6          20.3 GVEC023H21
     K24B05J KC2024 02 01.34696014 30 00.47 +49 19 36.3          20.5 GVEC023H21
     K24B05J KC2024 02 01.34975614 30 01.10 +49 19 19.7          20.6 GVEC023H21
     K24B05J 1C2024 02 02.01685 14 32 42.67 +48 07 23.0          20.1 VXEC023033
     K24B05J 1C2024 02 02.01961 14 32 43.36 +48 07 04.8          20.6 VXEC023033

Observer details:
033 Karl Schwarzschild Observatory, Tautenburg.  Observers S. Melnikov, C.
    Hogner, F. Ludwig, M. Hartmann, B. Stecklum.  Measurer B. Stecklum.
    1.34-m f/3 Schmidt + CCD.
F52 Pan-STARRS 2, Haleakala.  Observers J. Herman, T. Lowe, P. Minguez, A.
    Schultz, I. Smith.  Measurers K. Chambers, T. de Boer, J. Fairlamb, H.
    Gao, M. Huber, C.-C. Lin, E. Magnier, Y. Ramanjooloo, R. Wainscoat, R.
    Weryk.  1.8-m Ritchey-Chretien + CCD.
G96 Mt. Lemmon Survey.  Observer J. K. Hogan.  Measurers T. Beuden, V. F.
    Carvajal, D. Fay, J. B. Fazekas, D. C. Fuls, A. R. Gibbs, A. D. Grauer, H.
    Groeller, J. K. Hogan, R. A. Kowalski, S. M. Larson, G. J. Leonard, D.
    Rankin, R. L. Seaman, F. C. Shelly, K. W. Wierzchos.  1.5-m reflector +
    10K CCD.
H21 Astronomical Research Observatory, Westfield.  Observer R. Holmes.
    Measurers T. Linder, R. Holmes, L. Horn.  0.76-m f/3.0 astrograph + CCD.
I52 Steward Observatory, Mt. Lemmon Station.  Observer R. A. Kowalski.
    Measurers E. C. Beshore, D. Fay, J. B. Fazekas, D. C. Fuls, A. R. Gibbs,
    A. D. Grauer, H. Groeller, J. K. Hogan, R. A. Kowalski, S. M. Larson, G.
    J. Leonard, D. Rankin, R. L. Seaman, F. C. Shelly, K. W. Wierzchos.  1.0-m
    prime focus + CCD.

Orbital elements:
2024 BJ5                                                 Earth MOID = 0.0132 AU
Epoch 2023 Sept. 13.0 TT = JDT 2460200.5                MPC                     
M 301.34051              (2000.0)            P               Q                  
n   0.35940848     Peri.  180.79012     -0.93764389     -0.33175092             
a   1.9591928      Node   338.90421     +0.32047473     -0.70947570             
e   0.4869278      Incl.   16.75428     +0.13461012     -0.62176004             
P   2.74           H   22.60          G   0.15           U   9                  
Residuals in seconds of arc
240130 F52  0.4-  0.2-    240131 G96  0.6+  0.1+    240201 H21  0.1+  0.2-
240130 F52  0.1-  0.0     240131 I52  0.2+  0.3+    240201 H21  0.2-  0.3-
240131 G96  0.0   0.1+    240131 I52  0.2+  0.1+    240201 H21  0.2-  0.2+
240131 G96  0.1+  0.0     240131 I52  0.1+  0.3+    240202 033  0.1+  1.0+
240131 G96  0.4+  0.1+    240131 I52  0.5+  0.1+    240202 033  0.6+  0.6+

Ephemeris:
2024 BJ5                 a,e,i = 1.96, 0.49, 17                  q = 1.0052
Date    TT    R. A. (2000) Decl.     Delta      r    Elong.  Phase     V
2024 01 03    11 38 06.4 +69 51 29   0.3221  1.1684   117.7    48.2    22.3
...
2024 01 18    13 18 55.0 +64 53 51   0.2281  1.0921   112.7    56.2    21.6
...
2024 01 26    14 01 48.5 +58 12 13   0.1810  1.0594   109.7    61.0    21.2
...
2024 02 01    14 28 31.6 +49 55 37   0.1484  1.0393   107.4    64.8    20.8
2024 02 02    14 32 34.8 +48 09 40   0.1433  1.0364   107.0    65.4    20.8
2024 02 03    14 36 31.9 +46 15 40   0.1384  1.0336   106.6    66.0    20.7
...
2024 02 09    14 58 17.8 +31 30 32   0.1129  1.0194   103.8    70.0    20.4
...
2024 02 17    15 23 16.9 +02 17 31   0.09684 1.0079    99.1    75.4    20.2
...
2024 03 03    16 03 23.6 -45 39 00   0.1375  1.0106    94.1    78.1    21.0

A. U. Tomatic                (C) Copyright 2024 MPC           M.P.E.C. 2024-C23





More information about the Iaude mailing list